Flag for Uruguay Weather past 2 weeks in Montevideo, Uruguay

Now
55 °F

Partly sunny.


Feels Like: 54 °F
Forecast: 54 / 62 °F
Wind: 7 mph from South

Location: Carrasco

Current Time: Sep 21, 2014 at 7:10:58 AM

Latest Report: Sep 21, 2014 at 6:00 AM


Visibility: N/A

Pressure: 30.09 "Hg

Humidity: 88%

Dew point: 52 °F

Location of MontevideoLocation

Historic Weather in Montevideo — Graph

°F

Montevideo temperature yesterday

Maximum temperature yesterday: 61 °F (at 3:00 PM)
Minimum temperature yesterday: 54 °F (at 3:00 AM)
Average temperature yesterday: 57 °F

Past Weeks' High & Low Weather Summary

 TemperatureHumidityPressure
High75 °F (Sep 8, 4:00 PM)100% (Sep 6, 8:00 AM)30.15 "Hg (Sep 6, 8:00 AM)
Low43 °F (Sep 11, 7:00 AM)26% (Sep 7, 3:00 PM)29.47 "Hg (Sep 9, 9:00 AM)
Average58 °F79%29.98 "Hg
* Reported Sep 6 6:00 AM — Sep 21 6:00 AM, Montevideo, Weather by CustomWeather, © 2014

Note: Actual official high and low records may vary slightly from our data, if they occured in-between our weather recording intervals... More about our weather records

Advertising

Montevideo weather history for previous 24 hours

 ConditionsComfort  
Time TempWeatherWind HumidityBarometerVisibility
6:00 AM
Sep 21
55 °FPartly sunny.7 mph88%30.09 "HgN/A
5:00 AM55 °FPassing clouds.8 mph88%30.09 "HgN/A
4:00 AM55 °FPartly cloudy.8 mph94%30.09 "HgN/A
3:00 AM55 °FOvercast.13 mph94%30.09 "HgN/A
2:00 AM57 °FOvercast.14 mph88%30.09 "HgN/A
1:00 AM55 °FOvercast.15 mph94%30.09 "HgN/A
12:00 AM57 °FPartly cloudy.13 mph88%30.09 "HgN/A
11:00 PM
Sep 20
57 °FPartly cloudy.14 mph82%30.07 "HgN/A
10:00 PM57 °FPassing clouds.14 mph82%30.07 "HgN/A
9:00 PM57 °FPartly cloudy.15 mph77%30.07 "HgN/A
8:00 PM57 °FPartly cloudy.14 mph82%30.04 "HgN/A
7:00 PM57 °FPassing clouds.14 mph88%30.07 "HgN/A
6:00 PM57 °FPassing clouds.12 mph82%30.04 "HgN/A
5:00 PM59 °FPartly sunny.17 mph72%30.04 "HgN/A
4:00 PM59 °FPartly sunny.16 mph72%30.01 "HgN/A
3:00 PM61 °FPartly sunny.16 mph72%30.01 "HgN/A
10:00 AM59 °FPartly sunny.14 mph82%29.98 "HgN/A
9:00 AM59 °FSunny.13 mph88%29.95 "Hg10 mi
8:00 AM57 °FSunny.5 mph100%29.95 "Hg10 mi
7:00 AM55 °FFog.6 mph100%29.89 "Hg0 mi
Weather by CustomWeather, © 2014

See weather overviewHow to use our weather pages